Time,TemperatureF,DewpointF,PressureIn,WindDirection,WindDirectionDegrees,WindSpeedMPH,WindSpeedGustMPH,Humidity,HourlyPrecipIn,Conditions,Clouds,dailyrainin,SoftwareType,DateUTC
2013-09-14 00:03:00,66.9,66.6,29.57,SE,135,2.0,5.0,99,0.00,,,1.11,meteohub,2013-09-14 06:03:00,
2013-09-14 00:08:00,66.9,66.6,29.57,SE,135,4.0,5.0,99,0.00,,,0.00,meteohub,2013-09-14 06:08:00,
2013-09-14 00:13:00,66.7,66.4,29.57,SE,135,4.0,5.0,99,0.00,,,0.00,meteohub,2013-09-14 06:13:00,
2013-09-14 00:18:00,66.7,66.4,29.57,SE,135,3.0,5.0,99,0.00,,,0.00,meteohub,2013-09-14 06:18:00,
2013-09-14 00:23:00,66.7,66.4,29.58,SE,135,2.0,5.0,99,0.00,,,0.00,meteohub,2013-09-14 06:23:00,
2013-09-14 00:28:00,66.7,66.4,29.57,SE,135,3.0,4.0,99,0.00,,,0.00,meteohub,2013-09-14 06:28:00,
2013-09-14 00:33:00,66.7,66.4,29.56,East,90,0.0,4.0,99,0.00,,,0.00,meteohub,2013-09-14 06:33:00,
2013-09-14 00:38:00,66.7,66.4,29.56,East,90,0.0,3.0,99,0.00,,,0.00,meteohub,2013-09-14 06:38:00,
2013-09-14 00:43:00,66.7,66.4,29.56,SE,135,0.0,3.0,99,0.00,,,0.00,meteohub,2013-09-14 06:43:00,
2013-09-14 00:48:00,66.7,66.4,29.56,North,0,0.0,0.0,99,0.00,,,0.00,meteohub,2013-09-14 06:48:00,
2013-09-14 00:53:00,66.7,66.4,29.56,NE,45,0.0,0.0,99,0.00,,,0.00,meteohub,2013-09-14 06:53:00,
2013-09-14 00:58:00,66.6,66.2,29.55,NE,45,1.0,0.0,99,0.00,,,0.00,meteohub,2013-09-14 06:58:00,
2013-09-14 01:03:00,66.6,66.2,29.54,NE,45,0.0,2.0,99,0.00,,,0.00,meteohub,2013-09-14 07:03:00,
2013-09-14 01:08:00,66.6,66.2,29.54,East,90,0.0,2.0,99,0.00,,,0.00,meteohub,2013-09-14 07:08:00,
2013-09-14 01:13:00,66.6,66.2,29.54,East,90,0.0,2.0,99,0.00,,,0.00,meteohub,2013-09-14 07:13:00,
2013-09-14 01:18:00,66.6,66.2,29.54,East,90,0.0,0.0,99,0.00,,,0.00,meteohub,2013-09-14 07:18:00,
2013-09-14 01:23:00,66.6,66.2,29.54,East,90,0.0,0.0,99,0.00,,,0.00,meteohub,2013-09-14 07:23:00,
2013-09-14 01:28:00,66.6,66.2,29.53,East,90,0.0,1.0,99,0.00,,,0.00,meteohub,2013-09-14 07:28:00,
2013-09-14 01:33:00,66.6,66.2,29.54,East,90,0.0,1.0,99,0.00,,,0.00,meteohub,2013-09-14 07:33:00,
2013-09-14 01:38:00,66.6,66.2,29.54,SE,135,0.0,1.0,99,0.00,,,0.00,meteohub,2013-09-14 07:38:00,
2013-09-14 01:43:00,66.6,66.2,29.53,East,90,0.0,0.0,99,0.00,,,0.00,meteohub,2013-09-14 07:43:00,
2013-09-14 01:48:00,66.6,66.2,29.54,East,90,0.0,0.0,99,0.00,,,0.00,meteohub,2013-09-14 07:48:00,
2013-09-14 01:53:00,66.6,66.2,29.54,East,90,0.0,0.0,99,0.00,,,0.00,meteohub,2013-09-14 07:53:00,
2013-09-14 01:58:00,66.4,66.0,29.52,NE,45,0.0,3.0,99,0.00,,,0.00,meteohub,2013-09-14 07:58:00,
2013-09-14 02:03:00,66.4,66.0,29.53,East,90,0.0,3.0,99,0.00,,,0.00,meteohub,2013-09-14 08:03:00,
2013-09-14 02:08:00,66.4,66.0,29.52,East,90,0.0,3.0,99,0.00,,,0.00,meteohub,2013-09-14 08:08:00,
2013-09-14 02:13:00,66.4,66.0,29.52,East,90,0.0,0.0,99,0.00,,,0.00,meteohub,2013-09-14 08:13:00,
2013-09-14 02:18:00,66.4,66.0,29.52,SE,135,0.0,0.0,99,0.00,,,0.00,meteohub,2013-09-14 08:18:00,
2013-09-14 02:23:00,66.4,66.0,29.53,SE,135,2.0,2.0,99,0.00,,,0.00,meteohub,2013-09-14 08:23:00,
2013-09-14 02:28:00,66.4,66.0,29.52,South,180,2.0,3.0,99,0.00,,,0.00,meteohub,2013-09-14 08:28:00,
2013-09-14 02:33:00,66.2,65.8,29.52,SE,135,0.0,3.0,99,0.00,,,0.00,meteohub,2013-09-14 08:33:00,
2013-09-14 02:38:00,66.2,65.8,29.53,SE,135,5.0,5.0,99,0.00,,,0.00,meteohub,2013-09-14 08:38:00,
2013-09-14 02:43:00,66.2,65.8,29.52,SE,135,4.0,5.0,99,0.00,,,0.00,meteohub,2013-09-14 08:43:00,
2013-09-14 02:48:00,66.0,65.7,29.53,SE,135,3.0,5.0,99,0.00,,,0.00,meteohub,2013-09-14 08:48:00,
2013-09-14 02:53:00,66.0,65.7,29.52,SSE,158,3.0,5.0,99,0.00,,,0.00,meteohub,2013-09-14 08:53:00,
2013-09-14 02:58:00,66.0,65.7,29.52,SE,135,3.0,5.0,99,0.00,,,0.00,meteohub,2013-09-14 08:58:00,
2013-09-14 03:03:00,65.8,65.5,29.52,SE,135,1.0,5.0,99,0.00,,,0.00,meteohub,2013-09-14 09:03:00,
2013-09-14 03:08:00,65.8,65.5,29.52,East,90,2.0,5.0,99,0.00,,,0.00,meteohub,2013-09-14 09:08:00,
2013-09-14 03:14:00,65.8,65.5,29.53,East,90,3.0,4.0,99,0.00,,,0.00,meteohub,2013-09-14 09:14:00,
2013-09-14 03:19:00,66.0,65.7,29.52,NE,45,4.0,4.0,99,0.00,,,0.00,meteohub,2013-09-14 09:19:00,
2013-09-14 03:24:00,65.8,65.5,29.53,SE,135,0.0,4.0,99,0.00,,,0.00,meteohub,2013-09-14 09:24:00,
2013-09-14 03:29:00,65.8,65.5,29.52,SE,135,2.0,4.0,99,0.00,,,0.00,meteohub,2013-09-14 09:29:00,
2013-09-14 03:34:00,66.0,65.5,29.52,East,90,0.0,4.0,98,0.00,,,0.00,meteohub,2013-09-14 09:34:00,
2013-09-14 03:39:00,66.0,65.5,29.52,SE,135,0.0,4.0,98,0.00,,,0.00,meteohub,2013-09-14 09:39:00,
2013-09-14 03:44:00,66.0,65.1,29.52,SE,135,5.0,5.0,97,0.00,,,0.00,meteohub,2013-09-14 09:44:00,
2013-09-14 03:49:00,66.0,65.1,29.52,SE,135,4.0,4.0,97,0.00,,,0.00,meteohub,2013-09-14 09:49:00,
2013-09-14 03:54:00,66.0,65.1,29.52,SE,135,3.0,6.0,97,0.00,,,0.00,meteohub,2013-09-14 09:54:00,
2013-09-14 03:59:00,66.0,65.1,29.54,East,90,4.0,6.0,97,0.00,,,0.00,meteohub,2013-09-14 09:59:00,
2013-09-14 04:04:00,66.2,64.8,29.54,SE,135,6.0,6.0,95,0.00,,,0.00,meteohub,2013-09-14 10:04:00,
2013-09-14 04:09:00,66.4,64.9,29.55,East,90,4.0,6.0,95,0.00,,,0.00,meteohub,2013-09-14 10:09:00,
2013-09-14 04:14:00,66.4,64.9,29.54,East,90,3.0,6.0,95,0.00,,,0.00,meteohub,2013-09-14 10:14:00,
2013-09-14 04:19:00,66.4,64.9,29.55,NE,45,4.0,6.0,95,0.00,,,0.00,meteohub,2013-09-14 10:19:00,
2013-09-14 04:24:00,66.4,64.9,29.56,East,90,8.0,8.0,95,0.00,,,0.00,meteohub,2013-09-14 10:24:00,
2013-09-14 04:29:00,66.7,64.9,29.55,East,90,11.0,11.0,94,0.00,,,0.00,meteohub,2013-09-14 10:29:00,
2013-09-14 04:34:00,67.1,64.8,29.55,SE,135,9.0,12.0,92,0.00,,,0.00,meteohub,2013-09-14 10:34:00,
2013-09-14 04:39:00,67.6,64.6,29.55,East,90,11.0,12.0,90,0.00,,,0.00,meteohub,2013-09-14 10:39:00,
2013-09-14 04:44:00,68.0,64.0,29.55,East,90,9.0,12.0,87,0.00,,,0.00,meteohub,2013-09-14 10:44:00,
2013-09-14 04:49:00,67.8,64.4,29.55,East,90,4.0,11.0,89,0.00,,,0.00,meteohub,2013-09-14 10:49:00,
2013-09-14 04:54:00,67.5,64.4,29.56,East,90,4.0,11.0,90,0.00,,,0.00,meteohub,2013-09-14 10:54:00,
2013-09-14 04:59:00,67.1,64.0,29.56,East,90,2.0,9.0,90,0.00,,,0.00,meteohub,2013-09-14 10:59:00,
2013-09-14 05:04:00,66.9,64.2,29.56,East,90,2.0,4.0,91,0.00,,,0.00,meteohub,2013-09-14 11:04:00,
2013-09-14 05:09:00,66.9,64.2,29.56,East,90,0.0,4.0,91,0.00,,,0.00,meteohub,2013-09-14 11:09:00,
2013-09-14 05:14:00,66.7,64.0,29.56,SE,135,0.0,4.0,91,0.00,,,0.00,meteohub,2013-09-14 11:14:00,
2013-09-14 05:19:00,66.6,63.9,29.56,East,90,0.0,3.0,91,0.00,,,0.00,meteohub,2013-09-14 11:19:00,
2013-09-14 05:24:00,66.6,63.9,29.56,SE,135,0.0,3.0,91,0.00,,,0.00,meteohub,2013-09-14 11:24:00,
2013-09-14 05:29:00,66.4,63.7,29.56,East,90,0.0,1.0,91,0.00,,,0.00,meteohub,2013-09-14 11:29:00,
2013-09-14 05:34:00,66.4,63.7,29.57,East,90,4.0,4.0,91,0.00,,,0.00,meteohub,2013-09-14 11:34:00,
2013-09-14 05:39:00,66.6,63.9,29.56,East,90,5.0,5.0,91,0.00,,,0.00,meteohub,2013-09-14 11:39:00,
2013-09-14 05:44:00,66.6,63.9,29.57,SE,135,3.0,4.0,91,0.00,,,0.00,meteohub,2013-09-14 11:44:00,
2013-09-14 05:49:00,66.4,63.7,29.57,SE,135,8.0,8.0,91,0.00,,,0.00,meteohub,2013-09-14 11:49:00,
2013-09-14 05:54:00,66.6,63.9,29.58,East,90,6.0,8.0,91,0.00,,,0.00,meteohub,2013-09-14 11:54:00,
2013-09-14 05:59:00,66.9,64.2,29.58,SE,135,6.0,8.0,91,0.00,,,0.00,meteohub,2013-09-14 11:59:00,
2013-09-14 06:04:00,67.6,64.9,29.58,East,90,5.0,8.0,91,0.00,,,0.00,meteohub,2013-09-14 12:04:00,
2013-09-14 06:09:00,67.8,64.4,29.58,SE,135,5.0,7.0,89,0.00,,,0.00,meteohub,2013-09-14 12:09:00,
2013-09-14 06:14:00,68.0,64.4,29.59,East,90,8.0,8.0,88,0.00,,,0.00,meteohub,2013-09-14 12:14:00,
2013-09-14 06:19:00,68.2,64.4,29.60,NE,45,4.0,7.0,88,0.00,,,0.00,meteohub,2013-09-14 12:19:00,
2013-09-14 06:24:00,68.5,64.8,29.59,NE,45,4.0,8.0,88,0.00,,,0.00,meteohub,2013-09-14 12:24:00,
2013-09-14 06:29:00,68.7,64.9,29.60,East,90,8.0,10.0,88,0.00,,,0.00,meteohub,2013-09-14 12:29:00,
2013-09-14 06:34:00,69.1,65.3,29.60,East,90,6.0,10.0,88,0.00,,,0.00,meteohub,2013-09-14 12:34:00,
2013-09-14 06:39:00,69.6,65.7,29.60,SE,135,6.0,10.0,87,0.00,,,0.00,meteohub,2013-09-14 12:39:00,
2013-09-14 06:44:00,70.3,65.7,29.60,East,90,4.0,10.0,85,0.00,,,0.00,meteohub,2013-09-14 12:44:00,
2013-09-14 06:49:00,71.2,66.2,29.59,East,90,5.0,10.0,84,0.00,,,0.00,meteohub,2013-09-14 12:49:00,
2013-09-14 06:54:00,71.6,65.5,29.59,East,90,3.0,9.0,81,0.00,,,0.00,meteohub,2013-09-14 12:54:00,
2013-09-14 06:59:00,72.5,66.4,29.60,East,90,4.0,8.0,81,0.00,,,0.00,meteohub,2013-09-14 12:59:00,
2013-09-14 07:04:00,72.7,64.8,29.59,SE,135,6.0,8.0,76,0.00,,,0.00,meteohub,2013-09-14 13:04:00,
2013-09-14 07:09:00,72.9,64.8,29.60,NE,45,8.0,8.0,76,0.00,,,0.00,meteohub,2013-09-14 13:09:00,
2013-09-14 07:14:00,72.7,65.1,29.60,East,90,7.0,8.0,77,0.00,,,0.00,meteohub,2013-09-14 13:14:00,
2013-09-14 07:19:00,72.5,65.7,29.60,SE,135,4.0,8.0,79,0.00,,,0.00,meteohub,2013-09-14 13:19:00,
2013-09-14 07:24:00,73.0,66.2,29.60,SE,135,5.0,8.0,79,0.00,,,0.00,meteohub,2013-09-14 13:24:00,
2013-09-14 07:29:00,73.2,66.4,29.60,SE,135,6.0,8.0,79,0.00,,,0.00,meteohub,2013-09-14 13:29:00,
2013-09-14 07:34:00,73.4,66.2,29.60,SE,135,8.0,8.0,78,0.00,,,0.00,meteohub,2013-09-14 13:34:00,
2013-09-14 07:40:00,73.6,66.4,29.59,East,90,8.0,8.0,78,0.00,,,0.00,meteohub,2013-09-14 13:40:00,
2013-09-14 07:45:00,73.8,66.0,29.59,East,90,6.0,8.0,77,0.00,,,0.00,meteohub,2013-09-14 13:45:00,
2013-09-14 07:50:00,73.9,66.2,29.59,East,90,8.0,8.0,77,0.00,,,0.00,meteohub,2013-09-14 13:50:00,
2013-09-14 07:55:00,74.8,67.1,29.59,East,90,5.0,10.0,77,0.00,,,0.00,meteohub,2013-09-14 13:55:00,
2013-09-14 08:00:00,74.8,66.4,29.60,NE,45,11.0,11.0,75,0.00,,,0.00,meteohub,2013-09-14 14:00:00,
2013-09-14 08:05:00,75.2,66.4,29.59,NE,45,11.0,11.0,74,0.00,,,0.00,meteohub,2013-09-14 14:05:00,
2013-09-14 08:10:00,75.6,66.4,29.59,East,90,8.0,11.0,73,0.00,,,0.00,meteohub,2013-09-14 14:10:00,
2013-09-14 08:15:00,75.6,65.8,29.59,East,90,8.0,11.0,72,0.00,,,0.00,meteohub,2013-09-14 14:15:00,
2013-09-14 08:20:00,75.6,65.1,29.58,NE,45,7.0,11.0,70,0.00,,,0.00,meteohub,2013-09-14 14:20:00,
2013-09-14 08:25:00,75.7,65.3,29.59,SE,135,6.0,10.0,70,0.00,,,0.00,meteohub,2013-09-14 14:25:00,
2013-09-14 08:30:00,77.0,65.7,29.58,East,90,5.0,9.0,68,0.00,,,0.00,meteohub,2013-09-14 14:30:00,
2013-09-14 08:35:00,77.4,65.1,29.57,NE,45,11.0,12.0,66,0.00,,,0.00,meteohub,2013-09-14 14:35:00,
2013-09-14 08:40:00,76.8,65.8,29.59,NE,45,9.0,12.0,69,0.00,,,0.00,meteohub,2013-09-14 14:40:00,
2013-09-14 08:45:00,77.0,65.7,29.57,NE,45,5.0,12.0,68,0.00,,,0.00,meteohub,2013-09-14 14:45:00,
2013-09-14 08:50:00,77.7,65.8,29.57,North,0,9.0,11.0,67,0.00,,,0.00,meteohub,2013-09-14 14:50:00,
2013-09-14 08:55:00,77.9,65.7,29.58,NE,45,7.0,11.0,66,0.00,,,0.00,meteohub,2013-09-14 14:55:00,
2013-09-14 09:00:00,77.7,65.5,29.57,NE,45,6.0,11.0,66,0.00,,,0.00,meteohub,2013-09-14 15:00:00,
2013-09-14 09:05:00,78.3,66.0,29.57,East,90,8.0,11.0,66,0.00,,,0.00,meteohub,2013-09-14 15:05:00,
2013-09-14 09:10:00,78.6,65.8,29.57,North,0,11.0,12.0,65,0.00,,,0.00,meteohub,2013-09-14 15:10:00,
2013-09-14 09:15:00,78.8,66.0,29.57,NE,45,11.0,12.0,65,0.00,,,0.00,meteohub,2013-09-14 15:15:00,
2013-09-14 09:20:00,78.8,66.0,29.57,NE,45,11.0,12.0,65,0.00,,,0.00,meteohub,2013-09-14 15:20:00,
2013-09-14 09:25:00,78.6,66.4,29.57,NE,45,12.0,12.0,66,0.00,,,0.00,meteohub,2013-09-14 15:25:00,
2013-09-14 09:30:00,78.8,66.0,29.56,North,0,11.0,12.0,65,0.00,,,0.00,meteohub,2013-09-14 15:30:00,
2013-09-14 09:36:00,79.0,66.2,29.56,NE,45,10.0,15.0,65,0.00,,,0.00,meteohub,2013-09-14 15:36:00,
2013-09-14 09:41:00,78.8,66.0,29.55,East,90,10.0,15.0,65,0.00,,,0.00,meteohub,2013-09-14 15:41:00,
2013-09-14 09:46:00,79.0,66.2,29.55,NE,45,6.0,15.0,65,0.00,,,0.00,meteohub,2013-09-14 15:46:00,
2013-09-14 09:51:00,79.7,66.9,29.55,NE,45,12.0,12.0,65,0.00,,,0.00,meteohub,2013-09-14 15:51:00,
2013-09-14 09:56:00,79.9,66.2,29.55,SSW,203,9.0,12.0,63,0.00,,,0.00,meteohub,2013-09-14 15:56:00,
2013-09-14 10:01:00,79.9,66.2,29.55,East,90,4.0,12.0,63,0.00,,,0.00,meteohub,2013-09-14 16:01:00,
2013-09-14 10:06:00,80.8,66.6,29.54,NE,45,8.0,12.0,62,0.00,,,0.00,meteohub,2013-09-14 16:06:00,
2013-09-14 10:11:00,81.1,66.4,29.55,NE,45,8.0,12.0,61,0.00,,,0.00,meteohub,2013-09-14 16:11:00,
2013-09-14 10:16:00,81.7,66.4,29.54,SE,135,7.0,11.0,60,0.00,,,0.00,meteohub,2013-09-14 16:16:00,
2013-09-14 10:21:00,81.1,66.4,29.54,SW,225,6.0,11.0,61,0.00,,,0.00,meteohub,2013-09-14 16:21:00,
2013-09-14 10:26:00,81.9,66.6,29.54,East,90,5.0,10.0,60,0.00,,,0.00,meteohub,2013-09-14 16:26:00,
2013-09-14 10:31:00,83.7,66.4,29.53,NE,45,4.0,10.0,56,0.00,,,0.00,meteohub,2013-09-14 16:31:00,
2013-09-14 10:36:00,83.7,66.4,29.53,SE,135,4.0,8.0,56,0.00,,,0.00,meteohub,2013-09-14 16:36:00,
2013-09-14 10:41:00,84.0,66.2,29.53,North,0,7.0,8.0,55,0.00,,,0.00,meteohub,2013-09-14 16:41:00,
2013-09-14 10:46:00,82.8,68.9,29.52,North,0,10.0,10.0,63,0.00,,,0.00,meteohub,2013-09-14 16:46:00,
2013-09-14 10:51:00,81.9,68.5,29.52,NW,315,7.0,10.0,64,0.00,,,0.00,meteohub,2013-09-14 16:51:00,
2013-09-14 10:56:00,81.1,68.7,29.51,NW,315,11.0,13.0,66,0.00,,,0.00,meteohub,2013-09-14 16:56:00,
2013-09-14 11:01:00,79.5,68.5,29.52,South,180,6.0,13.0,69,0.00,,,0.00,meteohub,2013-09-14 17:01:00,
2013-09-14 11:06:00,79.3,69.1,29.51,North,0,5.0,13.0,71,0.00,,,0.00,meteohub,2013-09-14 17:06:00,
2013-09-14 11:11:00,79.3,69.4,29.51,NW,315,8.0,13.0,72,0.00,,,0.00,meteohub,2013-09-14 17:11:00,
2013-09-14 11:16:00,79.9,69.6,29.50,NW,315,11.0,11.0,71,0.00,,,0.00,meteohub,2013-09-14 17:16:00,
2013-09-14 11:21:00,80.4,70.2,29.50,NW,315,10.0,11.0,71,0.00,,,0.00,meteohub,2013-09-14 17:21:00,
2013-09-14 11:26:00,80.4,69.3,29.49,NW,315,9.0,11.0,69,0.00,,,0.00,meteohub,2013-09-14 17:26:00,
2013-09-14 11:31:00,80.6,69.1,29.49,NW,315,8.0,11.0,68,0.00,,,0.00,meteohub,2013-09-14 17:31:00,
2013-09-14 11:36:00,80.2,69.1,29.48,NW,315,8.0,11.0,69,0.00,,,0.00,meteohub,2013-09-14 17:36:00,
2013-09-14 11:41:00,80.1,68.9,29.47,NW,315,8.0,11.0,69,0.00,,,0.00,meteohub,2013-09-14 17:41:00,
2013-09-14 11:47:00,81.0,69.4,29.46,NW,315,9.0,15.0,68,0.00,,,0.00,meteohub,2013-09-14 17:47:00,
2013-09-14 11:52:00,80.6,68.5,29.45,NW,315,10.0,15.0,67,0.00,,,0.00,meteohub,2013-09-14 17:52:00,
2013-09-14 11:57:00,79.2,68.9,29.45,SW,225,8.0,15.0,71,0.00,,,0.00,meteohub,2013-09-14 17:57:00,
2013-09-14 12:02:00,78.3,69.6,29.46,WNW,293,13.0,14.0,75,0.00,,,0.00,meteohub,2013-09-14 18:02:00,
2013-09-14 12:07:00,75.9,70.0,29.46,NE,45,9.0,13.0,82,0.01,,,0.01,meteohub,2013-09-14 18:07:00,
2013-09-14 12:12:00,73.9,69.4,29.47,North,0,9.0,14.0,86,0.05,,,0.05,meteohub,2013-09-14 18:12:00,
2013-09-14 12:17:00,73.0,68.9,29.47,North,0,5.0,14.0,87,0.11,,,0.11,meteohub,2013-09-14 18:17:00,
2013-09-14 12:22:00,72.7,68.2,29.46,West,270,3.0,14.0,86,0.13,,,0.13,meteohub,2013-09-14 18:22:00,
2013-09-14 12:27:00,72.7,67.6,29.46,NW,315,4.0,11.0,84,0.15,,,0.15,meteohub,2013-09-14 18:27:00,
2013-09-14 12:32:00,73.0,68.2,29.46,WSW,248,4.0,8.0,85,0.15,,,0.15,meteohub,2013-09-14 18:32:00,
2013-09-14 12:37:00,73.6,69.8,29.46,North,0,4.0,5.0,88,0.15,,,0.15,meteohub,2013-09-14 18:37:00,
2013-09-14 12:42:00,73.8,70.3,29.46,North,0,10.0,10.0,89,0.15,,,0.15,meteohub,2013-09-14 18:42:00,
2013-09-14 12:47:00,73.0,68.0,29.46,North,0,3.0,10.0,84,0.15,,,0.15,meteohub,2013-09-14 18:47:00,
2013-09-14 12:52:00,72.5,67.1,29.46,North,0,10.0,10.0,83,0.15,,,0.15,meteohub,2013-09-14 18:52:00,
2013-09-14 12:57:00,71.8,65.7,29.46,North,0,15.0,15.0,81,0.15,,,0.15,meteohub,2013-09-14 18:57:00,
2013-09-14 13:02:00,71.1,66.0,29.46,North,0,7.0,15.0,84,0.15,,,0.15,meteohub,2013-09-14 19:02:00,
2013-09-14 13:07:00,70.5,66.4,29.47,NE,45,9.0,15.0,87,0.13,,,0.15,meteohub,2013-09-14 19:07:00,
2013-09-14 13:12:00,70.3,66.0,29.46,North,0,7.0,15.0,86,0.08,,,0.15,meteohub,2013-09-14 19:12:00,
2013-09-14 13:17:00,70.2,65.1,29.47,North,0,11.0,12.0,84,0.04,,,0.15,meteohub,2013-09-14 19:17:00,
2013-09-14 13:22:00,69.6,64.6,29.47,NE,45,9.0,11.0,84,0.01,,,0.15,meteohub,2013-09-14 19:22:00,
2013-09-14 13:27:00,69.4,64.4,29.47,NNW,338,7.0,11.0,84,0.00,,,0.15,meteohub,2013-09-14 19:27:00,
2013-09-14 13:32:00,69.3,64.2,29.46,North,0,9.0,11.0,84,0.00,,,0.15,meteohub,2013-09-14 19:32:00,
2013-09-14 13:37:00,69.1,64.4,29.47,NE,45,6.0,11.0,85,0.00,,,0.15,meteohub,2013-09-14 19:37:00,
2013-09-14 13:42:00,69.1,64.4,29.47,NE,45,4.0,9.0,85,0.00,,,0.15,meteohub,2013-09-14 19:42:00,
2013-09-14 13:47:00,69.3,64.9,29.47,North,0,4.0,9.0,86,0.00,,,0.15,meteohub,2013-09-14 19:47:00,
2013-09-14 13:52:00,69.4,65.1,29.47,North,0,8.0,8.0,86,0.01,,,0.17,meteohub,2013-09-14 19:52:00,
2013-09-14 13:57:00,69.4,65.1,29.47,North,0,6.0,8.0,86,0.01,,,0.17,meteohub,2013-09-14 19:57:00,
2013-09-14 14:02:00,69.4,65.5,29.47,NE,45,4.0,8.0,87,0.01,,,0.17,meteohub,2013-09-14 20:02:00,
2013-09-14 14:07:00,69.6,65.8,29.47,East,90,0.0,8.0,88,0.01,,,0.17,meteohub,2013-09-14 20:07:00,
2013-09-14 14:12:00,70.0,66.2,29.46,SW,225,2.0,6.0,88,0.01,,,0.17,meteohub,2013-09-14 20:12:00,
2013-09-14 14:17:00,70.2,66.4,29.47,West,270,1.0,5.0,88,0.01,,,0.17,meteohub,2013-09-14 20:17:00,
2013-09-14 14:22:00,70.7,67.3,29.47,North,0,1.0,4.0,89,0.01,,,0.17,meteohub,2013-09-14 20:22:00,
2013-09-14 14:27:00,70.9,67.5,29.47,NW,315,1.0,4.0,89,0.01,,,0.17,meteohub,2013-09-14 20:27:00,
2013-09-14 14:32:00,71.1,67.3,29.47,North,0,0.0,4.0,88,0.01,,,0.17,meteohub,2013-09-14 20:32:00,
2013-09-14 14:37:00,71.2,67.5,29.47,South,180,2.0,2.0,88,0.01,,,0.17,meteohub,2013-09-14 20:37:00,
2013-09-14 14:42:00,71.1,66.9,29.47,South,180,2.0,2.0,87,0.01,,,0.17,meteohub,2013-09-14 20:42:00,
2013-09-14 14:47:00,71.1,66.9,29.47,NW,315,2.0,3.0,87,0.00,,,0.17,meteohub,2013-09-14 20:47:00,
2013-09-14 14:52:00,70.9,66.7,29.47,NW,315,5.0,5.0,87,0.00,,,0.17,meteohub,2013-09-14 20:52:00,
2013-09-14 14:57:00,70.9,66.2,29.48,NW,315,6.0,6.0,85,0.00,,,0.17,meteohub,2013-09-14 20:57:00,
2013-09-14 15:02:00,70.7,66.4,29.47,North,0,3.0,8.0,86,0.00,,,0.17,meteohub,2013-09-14 21:02:00,
2013-09-14 15:07:00,70.5,66.7,29.47,North,0,0.0,8.0,88,0.00,,,0.17,meteohub,2013-09-14 21:07:00,
2013-09-14 15:12:00,70.3,66.9,29.47,NNW,338,4.0,8.0,89,0.00,,,0.17,meteohub,2013-09-14 21:12:00,
2013-09-14 15:17:00,70.2,67.1,29.47,North,0,4.0,8.0,90,0.00,,,0.17,meteohub,2013-09-14 21:17:00,
2013-09-14 15:22:00,69.8,66.7,29.46,North,0,4.0,6.0,90,0.00,,,0.17,meteohub,2013-09-14 21:22:00,
2013-09-14 15:27:00,69.6,67.3,29.47,NW,315,2.0,6.0,92,0.00,,,0.17,meteohub,2013-09-14 21:27:00,
2013-09-14 15:32:00,70.0,67.5,29.48,NE,45,3.0,6.0,92,0.00,,,0.17,meteohub,2013-09-14 21:32:00,
2013-09-14 15:37:00,70.0,67.3,29.47,SW,225,5.0,5.0,91,0.00,,,0.17,meteohub,2013-09-14 21:37:00,
2013-09-14 15:42:00,70.2,67.5,29.47,South,180,1.0,5.0,91,0.00,,,0.17,meteohub,2013-09-14 21:42:00,
2013-09-14 15:47:00,70.3,67.6,29.47,NW,315,2.0,5.0,91,0.00,,,0.17,meteohub,2013-09-14 21:47:00,
2013-09-14 15:52:00,70.5,67.5,29.47,North,0,2.0,5.0,90,0.00,,,0.17,meteohub,2013-09-14 21:52:00,
2013-09-14 15:57:00,70.5,67.5,29.47,South,180,0.0,4.0,90,0.00,,,0.17,meteohub,2013-09-14 21:57:00,
2013-09-14 16:02:00,70.5,67.1,29.48,NE,45,1.0,4.0,89,0.00,,,0.17,meteohub,2013-09-14 22:02:00,
2013-09-14 16:07:00,70.7,67.3,29.48,West,270,4.0,4.0,89,0.00,,,0.17,meteohub,2013-09-14 22:07:00,
2013-09-14 16:12:00,70.9,66.7,29.47,North,0,2.0,5.0,87,0.00,,,0.17,meteohub,2013-09-14 22:12:00,
2013-09-14 16:17:00,70.7,66.6,29.49,West,270,2.0,5.0,87,0.00,,,0.17,meteohub,2013-09-14 22:17:00,
2013-09-14 16:22:00,70.7,66.6,29.49,SW,225,0.0,5.0,87,0.00,,,0.17,meteohub,2013-09-14 22:22:00,
2013-09-14 16:27:00,70.7,66.6,29.48,North,0,0.0,4.0,87,0.00,,,0.17,meteohub,2013-09-14 22:27:00,
2013-09-14 16:32:00,70.7,66.4,29.48,North,0,0.0,4.0,86,0.00,,,0.17,meteohub,2013-09-14 22:32:00,
2013-09-14 16:37:00,70.9,66.6,29.48,NE,45,0.0,1.0,86,0.00,,,0.17,meteohub,2013-09-14 22:37:00,
2013-09-14 16:42:00,70.9,66.6,29.49,NW,315,2.0,2.0,86,0.00,,,0.17,meteohub,2013-09-14 22:42:00,
2013-09-14 16:47:00,70.9,66.7,29.49,NW,315,3.0,3.0,87,0.00,,,0.17,meteohub,2013-09-14 22:47:00,
2013-09-14 16:49:00,70.9,66.7,29.49,NW,315,3.0,3.0,87,0.00,,,0.17,meteohub,2013-09-14 22:49:00,
2013-09-14 16:54:00,70.7,66.6,29.50,North,0,2.0,3.0,87,0.00,,,0.17,meteohub,2013-09-14 22:54:00,
2013-09-14 16:59:00,70.5,66.4,29.50,East,90,2.0,3.0,87,0.00,,,0.17,meteohub,2013-09-14 22:59:00,
2013-09-14 17:04:00,70.5,66.4,29.50,NE,45,0.0,3.0,87,0.00,,,0.17,meteohub,2013-09-14 23:04:00,
2013-09-14 17:09:00,70.7,66.6,29.50,West,270,2.0,2.0,87,0.00,,,0.17,meteohub,2013-09-14 23:09:00,
2013-09-14 17:14:00,70.7,66.6,29.50,West,270,1.0,2.0,87,0.00,,,0.17,meteohub,2013-09-14 23:14:00,
2013-09-14 17:19:00,70.7,66.6,29.49,NE,45,3.0,3.0,87,0.00,,,0.17,meteohub,2013-09-14 23:19:00,
2013-09-14 17:24:00,70.7,66.6,29.50,NE,45,0.0,3.0,87,0.00,,,0.17,meteohub,2013-09-14 23:24:00,
2013-09-14 17:29:00,70.5,66.4,29.50,NW,315,0.0,3.0,87,0.00,,,0.17,meteohub,2013-09-14 23:29:00,
2013-09-14 17:34:00,70.5,66.4,29.51,SW,225,2.0,3.0,87,0.00,,,0.17,meteohub,2013-09-14 23:34:00,
2013-09-14 17:39:00,70.5,66.4,29.51,SW,225,1.0,3.0,87,0.00,,,0.17,meteohub,2013-09-14 23:39:00,
2013-09-14 17:44:00,70.5,66.7,29.51,South,180,3.0,3.0,88,0.00,,,0.17,meteohub,2013-09-14 23:44:00,
2013-09-14 17:49:00,70.5,66.7,29.52,West,270,2.0,3.0,88,0.00,,,0.17,meteohub,2013-09-14 23:49:00,
2013-09-14 17:54:00,70.5,66.7,29.51,SW,225,2.0,3.0,88,0.00,,,0.17,meteohub,2013-09-14 23:54:00,
2013-09-14 17:59:00,70.3,66.9,29.52,NW,315,4.0,4.0,89,0.00,,,0.17,meteohub,2013-09-14 23:59:00,
2013-09-14 18:04:00,70.3,66.9,29.54,NW,315,1.0,4.0,89,0.00,,,0.17,meteohub,2013-09-15 00:04:00,
2013-09-14 18:09:00,70.5,67.1,29.53,NW,315,2.0,4.0,89,0.00,,,0.17,meteohub,2013-09-15 00:09:00,
2013-09-14 18:14:00,70.5,67.5,29.53,North,0,2.0,4.0,90,0.00,,,0.17,meteohub,2013-09-15 00:14:00,
2013-09-14 18:19:00,70.3,67.3,29.53,North,0,2.0,3.0,90,0.00,,,0.17,meteohub,2013-09-15 00:19:00,
2013-09-14 18:25:00,70.0,66.9,29.53,North,0,0.0,3.0,90,0.00,,,0.17,meteohub,2013-09-15 00:25:00,
2013-09-14 18:30:00,70.0,67.3,29.53,North,0,3.0,4.0,91,0.00,,,0.17,meteohub,2013-09-15 00:30:00,
2013-09-14 18:35:00,69.6,67.5,29.52,North,0,2.0,4.0,93,0.00,,,0.17,meteohub,2013-09-15 00:35:00,
2013-09-14 18:40:00,69.8,67.3,29.53,SE,135,0.0,3.0,92,0.00,,,0.17,meteohub,2013-09-15 00:40:00,
2013-09-14 18:45:00,69.8,67.3,29.53,SE,135,1.0,3.0,92,0.00,,,0.17,meteohub,2013-09-15 00:45:00,
2013-09-14 18:50:00,69.6,67.8,29.54,NW,315,0.0,3.0,94,0.00,,,0.17,meteohub,2013-09-15 00:50:00,
2013-09-14 18:55:00,69.6,67.8,29.55,North,0,4.0,4.0,94,0.00,,,0.17,meteohub,2013-09-15 00:55:00,
2013-09-14 19:00:00,70.0,67.8,29.53,NW,315,2.0,4.0,93,0.00,,,0.17,meteohub,2013-09-15 01:00:00,
2013-09-14 19:05:00,70.0,67.5,29.54,NE,45,0.0,4.0,92,0.00,,,0.17,meteohub,2013-09-15 01:05:00,
2013-09-14 19:10:00,69.8,67.3,29.52,NE,45,0.0,4.0,92,0.00,,,0.17,meteohub,2013-09-15 01:10:00,
2013-09-14 19:15:00,69.6,67.5,29.53,South,180,2.0,2.0,93,0.00,,,0.17,meteohub,2013-09-15 01:15:00,
2013-09-14 19:20:00,69.6,67.5,29.53,South,180,5.0,5.0,93,0.00,,,0.17,meteohub,2013-09-15 01:20:00,
2013-09-14 19:25:00,69.6,67.8,29.53,SW,225,6.0,6.0,94,0.00,,,0.17,meteohub,2013-09-15 01:25:00,
2013-09-14 19:30:00,69.3,67.5,29.54,SW,225,4.0,5.0,94,0.00,,,0.17,meteohub,2013-09-15 01:30:00,
2013-09-14 19:35:00,69.1,67.6,29.53,SW,225,3.0,6.0,95,0.00,,,0.17,meteohub,2013-09-15 01:35:00,
2013-09-14 19:40:00,68.9,67.6,29.54,West,270,2.0,6.0,96,0.00,,,0.17,meteohub,2013-09-15 01:40:00,
2013-09-14 19:45:00,68.7,67.5,29.55,NW,315,4.0,6.0,96,0.00,,,0.17,meteohub,2013-09-15 01:45:00,
2013-09-14 19:50:00,68.9,67.6,29.55,NW,315,5.0,5.0,96,0.00,,,0.17,meteohub,2013-09-15 01:50:00,
2013-09-14 19:55:00,69.1,67.8,29.55,NW,315,8.0,8.0,96,0.00,,,0.17,meteohub,2013-09-15 01:55:00,
2013-09-14 20:00:00,68.7,67.5,29.56,West,270,5.0,7.0,96,0.00,,,0.17,meteohub,2013-09-15 02:00:00,
2013-09-14 20:05:00,68.5,67.3,29.56,NW,315,4.0,8.0,96,0.00,,,0.17,meteohub,2013-09-15 02:05:00,
2013-09-14 20:10:00,68.7,67.5,29.57,North,0,3.0,8.0,96,0.00,,,0.17,meteohub,2013-09-15 02:10:00,
2013-09-14 20:15:00,68.7,67.5,29.57,NW,315,6.0,7.0,96,0.00,,,0.17,meteohub,2013-09-15 02:15:00,
2013-09-14 20:20:00,68.4,67.1,29.58,North,0,2.0,7.0,96,0.00,,,0.17,meteohub,2013-09-15 02:20:00,
2013-09-14 20:25:00,68.4,67.1,29.57,NW,315,2.0,6.0,96,0.00,,,0.17,meteohub,2013-09-15 02:25:00,
2013-09-14 20:30:00,68.4,67.5,29.57,North,0,1.0,6.0,97,0.00,,,0.17,meteohub,2013-09-15 02:30:00,
2013-09-14 20:35:00,68.2,67.3,29.56,NE,45,2.0,3.0,97,0.00,,,0.17,meteohub,2013-09-15 02:35:00,
2013-09-14 20:40:00,68.0,66.7,29.57,NE,45,0.0,2.0,96,0.00,,,0.17,meteohub,2013-09-15 02:40:00,
2013-09-14 20:45:00,68.0,66.7,29.57,SE,135,1.0,2.0,96,0.00,,,0.17,meteohub,2013-09-15 02:45:00,
2013-09-14 20:50:00,68.0,66.7,29.57,South,180,4.0,4.0,96,0.00,,,0.17,meteohub,2013-09-15 02:50:00,
2013-09-14 20:55:00,68.2,66.9,29.57,SE,135,2.0,4.0,96,0.00,,,0.17,meteohub,2013-09-15 02:55:00,
2013-09-14 21:00:00,68.0,66.7,29.57,South,180,2.0,4.0,96,0.00,,,0.17,meteohub,2013-09-15 03:00:00,
2013-09-14 21:05:00,68.0,66.7,29.58,SE,135,0.0,4.0,96,0.00,,,0.17,meteohub,2013-09-15 03:05:00,
2013-09-14 21:10:00,68.0,66.7,29.58,SE,135,0.0,2.0,96,0.00,,,0.17,meteohub,2013-09-15 03:10:00,
2013-09-14 21:15:00,68.0,66.7,29.58,SE,135,0.0,2.0,96,0.00,,,0.17,meteohub,2013-09-15 03:15:00,
2013-09-14 21:20:00,67.8,66.9,29.57,NW,315,0.0,0.0,97,0.00,,,0.17,meteohub,2013-09-15 03:20:00,
2013-09-14 21:25:00,68.0,66.7,29.58,East,90,0.0,0.0,96,0.00,,,0.17,meteohub,2013-09-15 03:25:00,
2013-09-14 21:30:00,68.0,66.7,29.58,NE,45,0.0,0.0,96,0.00,,,0.17,meteohub,2013-09-15 03:30:00,
2013-09-14 21:35:00,68.0,66.7,29.58,NE,45,0.0,0.0,96,0.00,,,0.17,meteohub,2013-09-15 03:35:00,
2013-09-14 21:41:00,68.0,66.7,29.57,NE,45,0.0,0.0,96,0.00,,,0.17,meteohub,2013-09-15 03:41:00,
2013-09-14 21:46:00,68.0,66.7,29.58,East,90,1.0,0.0,96,0.00,,,0.17,meteohub,2013-09-15 03:46:00,
2013-09-14 21:51:00,68.0,66.7,29.58,East,90,0.0,1.0,96,0.00,,,0.17,meteohub,2013-09-15 03:51:00,
2013-09-14 21:56:00,68.0,66.7,29.59,SE,135,2.0,3.0,96,0.00,,,0.17,meteohub,2013-09-15 03:56:00,
2013-09-14 22:01:00,68.0,66.7,29.58,South,180,2.0,3.0,96,0.00,,,0.17,meteohub,2013-09-15 04:01:00,
2013-09-14 22:02:00,68.0,66.7,29.59,SE,135,2.0,3.0,96,0.00,,,0.17,meteohub,2013-09-15 04:02:00,
2013-09-14 22:08:00,68.0,66.7,29.59,South,180,4.0,4.0,96,0.00,,,0.17,meteohub,2013-09-15 04:08:00,
2013-09-14 22:13:00,67.8,66.9,29.58,SE,135,3.0,4.0,97,0.00,,,0.17,meteohub,2013-09-15 04:13:00,
2013-09-14 22:18:00,67.8,66.9,29.58,East,90,2.0,4.0,97,0.00,,,0.17,meteohub,2013-09-15 04:18:00,
2013-09-14 22:23:00,67.6,66.7,29.59,SE,135,3.0,4.0,97,0.00,,,0.17,meteohub,2013-09-15 04:23:00,
2013-09-14 22:28:00,67.6,67.1,29.59,SE,135,3.0,4.0,98,0.00,,,0.17,meteohub,2013-09-15 04:28:00,
2013-09-14 22:33:00,67.6,67.1,29.59,SE,135,3.0,3.0,98,0.00,,,0.17,meteohub,2013-09-15 04:33:00,
2013-09-14 22:38:00,67.6,67.1,29.58,East,90,1.0,4.0,98,0.00,,,0.17,meteohub,2013-09-15 04:38:00,
2013-09-14 22:43:00,67.6,67.1,29.59,East,90,0.0,4.0,98,0.00,,,0.17,meteohub,2013-09-15 04:43:00,
2013-09-14 22:48:00,67.6,67.1,29.58,SE,135,0.0,4.0,98,0.00,,,0.17,meteohub,2013-09-15 04:48:00,
2013-09-14 22:53:00,67.6,67.1,29.58,SE,135,0.0,2.0,98,0.00,,,0.17,meteohub,2013-09-15 04:53:00,
2013-09-14 22:58:00,67.6,67.1,29.58,NE,45,1.0,0.0,98,0.00,,,0.17,meteohub,2013-09-15 04:58:00,
2013-09-14 23:03:00,67.5,66.9,29.57,NE,45,2.0,2.0,98,0.00,,,0.17,meteohub,2013-09-15 05:03:00,
2013-09-14 23:08:00,67.5,66.9,29.58,East,90,2.0,3.0,98,0.00,,,0.17,meteohub,2013-09-15 05:08:00,
2013-09-14 23:13:00,67.5,66.9,29.57,NE,45,2.0,3.0,98,0.00,,,0.17,meteohub,2013-09-15 05:13:00,
2013-09-14 23:18:00,67.5,66.9,29.57,East,90,3.0,3.0,98,0.00,,,0.17,meteohub,2013-09-15 05:18:00,
2013-09-14 23:23:00,67.5,66.9,29.58,SE,135,2.0,2.0,98,0.00,,,0.17,meteohub,2013-09-15 05:23:00,
2013-09-14 23:28:00,67.5,67.1,29.57,South,180,3.0,3.0,99,0.00,,,0.17,meteohub,2013-09-15 05:28:00,
2013-09-14 23:33:00,67.6,67.3,29.58,NE,45,4.0,4.0,99,0.00,,,0.17,meteohub,2013-09-15 05:33:00,
2013-09-14 23:38:00,67.5,66.9,29.57,East,90,4.0,4.0,98,0.00,,,0.17,meteohub,2013-09-15 05:38:00,
2013-09-14 23:43:00,67.6,67.1,29.58,East,90,2.0,4.0,98,0.00,,,0.17,meteohub,2013-09-15 05:43:00,
2013-09-14 23:48:00,67.8,66.9,29.58,NE,45,4.0,4.0,97,0.00,,,0.17,meteohub,2013-09-15 05:48:00,
2013-09-14 23:53:00,68.0,66.6,29.58,East,90,2.0,4.0,95,0.00,,,0.17,meteohub,2013-09-15 05:53:00,
2013-09-14 23:58:00,68.0,66.2,29.58,SE,135,2.0,4.0,94,0.00,,,0.17,meteohub,2013-09-15 05:58:00,